TimeEST,TemperatureF,Dew PointF,Humidity,Sea Level PressureIn,VisibilityMPH,Wind Direction,Wind SpeedMPH,Gust SpeedMPH,PrecipitationIn,Events,Conditions,WindDirDegrees,DateUTC
12:00 AM,37.4,37.4,100,30.07,2.0,NE,8.1,-,0.01,Rain,Light Rain,40,2014-02-05 05:00:00
12:29 AM,37.4,37.4,100,30.06,3.0,NE,8.1,-,0.01,,Overcast,40,2014-02-05 05:29:00
12:38 AM,37.4,37.4,100,30.06,2.0,NNE,6.9,-,0.01,,Overcast,30,2014-02-05 05:38:00
12:53 AM,37.9,37.0,97,30.07,2.5,NNE,5.8,-,0.01,,Overcast,30,2014-02-05 05:53:00
1:53 AM,37.9,37.0,97,30.02,2.5,NE,8.1,-,0.01,,Overcast,40,2014-02-05 06:53:00
2:53 AM,37.9,37.0,97,29.99,2.0,NNE,5.8,-,0.00,Rain,Light Rain,20,2014-02-05 07:53:00
3:29 AM,37.4,37.4,100,29.90,3.0,East,9.2,-,0.00,,Overcast,90,2014-02-05 08:29:00
3:36 AM,37.4,37.4,100,29.90,2.5,East,8.1,-,0.00,,Overcast,80,2014-02-05 08:36:00
3:53 AM,37.9,37.0,97,29.96,2.5,Variable,3.5,-,0.00,,Overcast,0,2014-02-05 08:53:00
4:09 AM,37.4,37.4,100,29.93,1.8,NNE,5.8,-,0.01,Rain,Light Rain,20,2014-02-05 09:09:00
4:18 AM,37.4,37.4,100,29.93,2.5,North,4.6,-,0.02,Rain,Light Rain,360,2014-02-05 09:18:00
4:53 AM,37.9,37.0,97,29.94,4.0,NNE,4.6,-,0.05,Rain,Light Rain,30,2014-02-05 09:53:00
5:09 AM,37.4,37.4,100,29.92,5.0,NNE,4.6,-,0.05,Rain,Light Rain,30,2014-02-05 10:09:00
5:43 AM,37.4,37.4,100,29.91,6.0,ENE,3.5,-,0.05,Rain,Light Rain,60,2014-02-05 10:43:00
5:53 AM,37.9,37.0,97,29.91,3.0,NE,4.6,-,0.07,Rain,Rain,50,2014-02-05 10:53:00
6:53 AM,37.9,37.0,97,29.94,4.0,Calm,Calm,-,0.15,Rain,Rain,0,2014-02-05 11:53:00
7:53 AM,39.0,37.9,96,29.91,8.0,Calm,Calm,-,0.03,,Overcast,0,2014-02-05 12:53:00
8:00 AM,39.2,37.4,93,29.90,7.0,SW,3.5,-,N/A,,Overcast,230,2014-02-05 13:00:00
8:53 AM,39.9,39.0,97,29.91,4.0,South,5.8,-,N/A,,Overcast,180,2014-02-05 13:53:00
9:06 AM,39.2,39.2,100,29.90,4.0,SSW,4.6,-,N/A,,Overcast,200,2014-02-05 14:06:00
9:39 AM,41.0,41.0,100,29.89,2.0,SSW,8.1,-,N/A,,Overcast,200,2014-02-05 14:39:00
9:53 AM,43.0,42.1,97,29.90,3.0,SSW,8.1,-,N/A,,Overcast,200,2014-02-05 14:53:00
10:53 AM,46.9,45.0,93,29.88,10.0,SW,10.4,-,N/A,,Overcast,230,2014-02-05 15:53:00
11:53 AM,51.1,46.9,86,29.86,10.0,WSW,10.4,-,N/A,,Overcast,240,2014-02-05 16:53:00
12:08 PM,53.6,48.2,82,29.86,10.0,WSW,10.4,-,N/A,,Mostly Cloudy,250,2014-02-05 17:08:00
12:43 PM,55.4,48.2,77,29.85,10.0,WSW,11.5,-,N/A,,Partly Cloudy,240,2014-02-05 17:43:00
12:53 PM,55.9,46.9,72,29.84,10.0,West,15.0,-,N/A,,Scattered Clouds,260,2014-02-05 17:53:00
1:53 PM,63.0,46.0,54,29.81,10.0,WSW,13.8,-,N/A,,Clear,240,2014-02-05 18:53:00
2:53 PM,64.9,35.1,33,29.82,10.0,West,13.8,25.3,N/A,,Clear,260,2014-02-05 19:53:00
3:53 PM,63.0,33.1,33,29.84,10.0,WSW,17.3,25.3,N/A,,Clear,240,2014-02-05 20:53:00
4:53 PM,57.9,33.1,39,29.88,10.0,WSW,15.0,26.5,N/A,,Clear,240,2014-02-05 21:53:00
5:53 PM,52.0,33.1,49,29.92,10.0,WSW,10.4,-,N/A,,Clear,250,2014-02-05 22:53:00
6:53 PM,48.0,33.1,56,29.96,10.0,WNW,9.2,-,N/A,,Clear,300,2014-02-05 23:53:00
7:53 PM,43.0,30.9,62,30.00,10.0,NW,3.5,-,N/A,,Clear,320,2014-02-06 00:53:00
8:53 PM,39.9,28.9,65,30.03,10.0,NNW,4.6,-,N/A,,Clear,330,2014-02-06 01:53:00
9:53 PM,37.9,28.9,70,30.06,10.0,Calm,Calm,-,N/A,,Clear,0,2014-02-06 02:53:00
10:53 PM,37.0,27.0,67,30.08,10.0,North,3.5,-,N/A,,Clear,360,2014-02-06 03:53:00
11:53 PM,36.0,26.1,67,30.10,10.0,Calm,Calm,-,N/A,,Clear,0,2014-02-06 04:53:00